User: anonymous   Login
Location: B?jaj?g
(11.7167°N, 92.6667°E)
Time: 22:31:18
(UTC+00:00)
Language:

Meteor 1-23 Rocket - Orbit

View from above orbital plane
View from above orbital plane
View from above satellite
View from above satellite

Ground track
Ground track

The orbit data is extracted from the following two-line orbital elements,

1 08520U 75124B   21209.92261783 -.00000072  00000-0 -48990-4 0  9991
2 08520  81.2902 155.1600 0031788  24.4826 335.7846 14.09009202342507
Epoch (UTC): 28 July 2021 22:08:34
Eccentricity: 0.0031788
inclination: 81.2902°
perigee height: 840 km
apogee height: 886 km
right ascension of ascending node: 155.1600°
argument of perigee: 24.4826°
revolutions per day: 14.09009202
mean anomaly at epoch: 335.7846°
orbit number at epoch: 34250

The dashed part of the orbit path shows where the satellite is in the earth's shadow,  

DLR